owner,sensor,date,latitude,longitude,vertical_datum,wind_speed,wind_to_direction,wind_speed_of_gust,qcFlag 
WAVCIS,ioos:station:WAVCIS:CSI06:1,2010-02-01T00:00:00Z,28.8667,-90.4833,10.0,9.47,50.0,,'11111222,11111222,99999999' 
WAVCIS,ioos:station:WAVCIS:CSI06:1,2010-02-01T01:00:00Z,28.8667,-90.4833,10.0,8.79,47.0,,'11111222,11111222,99999999' 
WAVCIS,ioos:station:WAVCIS:CSI06:1,2010-02-01T02:00:00Z,28.8667,-90.4833,10.0,8.34,48.0,,'11111222,11111222,99999999' 
WAVCIS,ioos:station:WAVCIS:CSI06:1,2010-02-01T03:00:00Z,28.8667,-90.4833,10.0,7.67,40.0,,'11111222,11111222,99999999' 
WAVCIS,ioos:station:WAVCIS:CSI06:1,2010-02-01T04:00:00Z,28.8667,-90.4833,10.0,7.29,47.0,,'11111222,11111222,99999999' 
WAVCIS,ioos:station:WAVCIS:CSI06:1,2010-02-01T05:00:00Z,28.8667,-90.4833,10.0,10.69,53.0,,'11111222,11111222,99999999' 
WAVCIS,ioos:station:WAVCIS:CSI06:1,2010-02-01T06:00:00Z,28.8667,-90.4833,10.0,9.78,50.0,,'11111222,11111222,99999999' 
WAVCIS,ioos:station:WAVCIS:CSI06:1,2010-02-01T07:00:00Z,28.8667,-90.4833,10.0,9.92,51.0,,'11111222,11111222,99999999' 
WAVCIS,ioos:station:WAVCIS:CSI06:1,2010-02-01T08:00:00Z,28.8667,-90.4833,10.0,11.19,51.0,,'11111222,11111222,99999999' 
WAVCIS,ioos:station:WAVCIS:CSI06:1,2010-02-01T09:00:00Z,28.8667,-90.4833,10.0,11.49,51.0,,'11111222,11111222,99999999' 
WAVCIS,ioos:station:WAVCIS:CSI06:1,2010-02-01T10:00:00Z,28.8667,-90.4833,10.0,11.67,51.0,,'11111222,11111222,99999999' 
WAVCIS,ioos:station:WAVCIS:CSI06:1,2010-02-01T11:00:00Z,28.8667,-90.4833,10.0,8.02,19.0,,'11111222,11111222,99999999' 
WAVCIS,ioos:station:WAVCIS:CSI06:1,2010-02-01T12:00:00Z,28.8667,-90.4833,10.0,8.94,25.0,,'11111222,11111222,99999999' 
WAVCIS,ioos:station:WAVCIS:CSI06:1,2010-02-01T13:00:00Z,28.8667,-90.4833,10.0,9.45,40.0,,'11111222,11111222,99999999' 
WAVCIS,ioos:station:WAVCIS:CSI06:1,2010-02-01T14:00:00Z,28.8667,-90.4833,10.0,10.0,46.0,,'11111222,11111222,99999999' 
WAVCIS,ioos:station:WAVCIS:CSI06:1,2010-02-01T15:00:00Z,28.8667,-90.4833,10.0,11.5,61.0,,'11111222,11111222,99999999' 
WAVCIS,ioos:station:WAVCIS:CSI06:1,2010-02-01T16:00:00Z,28.8667,-90.4833,10.0,12.14,66.0,,'11111222,11111222,99999999' 
WAVCIS,ioos:station:WAVCIS:CSI06:1,2010-02-01T17:00:00Z,28.8667,-90.4833,10.0,12.22,66.0,,'11111222,11111222,99999999' 
WAVCIS,ioos:station:WAVCIS:CSI06:1,2010-02-01T18:00:00Z,28.8667,-90.4833,10.0,11.35,71.0,,'11111222,11111222,99999999' 
WAVCIS,ioos:station:WAVCIS:CSI06:1,2010-02-01T19:00:00Z,28.8667,-90.4833,10.0,10.38,66.0,,'11111222,11111222,99999999' 
WAVCIS,ioos:station:WAVCIS:CSI06:1,2010-02-01T20:00:00Z,28.8667,-90.4833,10.0,9.8,63.0,,'11111222,11111222,99999999' 
WAVCIS,ioos:station:WAVCIS:CSI06:1,2010-02-01T21:00:00Z,28.8667,-90.4833,10.0,10.24,69.0,,'11111222,11111222,99999999' 
WAVCIS,ioos:station:WAVCIS:CSI06:1,2010-02-01T22:00:00Z,28.8667,-90.4833,10.0,8.93,58.0,,'11111222,11111222,99999999' 
WAVCIS,ioos:station:WAVCIS:CSI06:1,2010-02-01T23:00:00Z,28.8667,-90.4833,10.0,8.45,56.0,,'11111222,11111222,99999999' 
WAVCIS,ioos:station:WAVCIS:CSI06:1,2010-02-02T00:00:00Z,28.8667,-90.4833,10.0,7.87,57.0,,'11111222,11111222,99999999' 
WAVCIS,ioos:station:WAVCIS:CSI06:1,2010-02-02T01:00:00Z,28.8667,-90.4833,10.0,7.88,50.0,,'11111222,11111222,99999999' 
WAVCIS,ioos:station:WAVCIS:CSI06:1,2010-02-02T02:00:00Z,28.8667,-90.4833,10.0,9.31,63.0,,'11111222,11111222,99999999' 
WAVCIS,ioos:station:WAVCIS:CSI06:1,2010-02-02T03:00:00Z,28.8667,-90.4833,10.0,8.86,64.0,,'11111222,11111222,99999999' 
WAVCIS,ioos:station:WAVCIS:CSI06:1,2010-02-02T04:00:00Z,28.8667,-90.4833,10.0,8.14,70.0,,'11111222,11111222,99999999' 
WAVCIS,ioos:station:WAVCIS:CSI06:1,2010-02-02T05:00:00Z,28.8667,-90.4833,10.0,8.5,48.0,,'11111222,11111222,99999999' 
WAVCIS,ioos:station:WAVCIS:CSI06:1,2010-02-02T06:00:00Z,28.8667,-90.4833,10.0,7.39,64.0,,'11111222,11111222,99999999' 
WAVCIS,ioos:station:WAVCIS:CSI06:1,2010-02-02T07:00:00Z,28.8667,-90.4833,10.0,7.0,55.0,,'11111222,11111222,99999999' 
WAVCIS,ioos:station:WAVCIS:CSI06:1,2010-02-02T08:00:00Z,28.8667,-90.4833,10.0,6.619,52.0,,'11111222,11111222,99999999' 
WAVCIS,ioos:station:WAVCIS:CSI06:1,2010-02-02T09:00:00Z,28.8667,-90.4833,10.0,7.57,64.0,,'11111222,11111222,99999999' 
WAVCIS,ioos:station:WAVCIS:CSI06:1,2010-02-02T10:00:00Z,28.8667,-90.4833,10.0,5.584,42.0,,'11111222,11111222,99999999' 
WAVCIS,ioos:station:WAVCIS:CSI06:1,2010-02-02T11:00:00Z,28.8667,-90.4833,10.0,7.0,50.0,,'11111222,11111222,99999999' 
WAVCIS,ioos:station:WAVCIS:CSI06:1,2010-02-02T12:00:00Z,28.8667,-90.4833,10.0,6.82,50.0,,'11111222,11111222,99999999' 
WAVCIS,ioos:station:WAVCIS:CSI06:1,2010-02-02T13:00:00Z,28.8667,-90.4833,10.0,4.904,38.0,,'11111222,11111222,99999999' 
WAVCIS,ioos:station:WAVCIS:CSI06:1,2010-02-02T14:00:00Z,28.8667,-90.4833,10.0,5.489,46.0,,'11111222,11111222,99999999' 
WAVCIS,ioos:station:WAVCIS:CSI06:1,2010-02-02T15:00:00Z,28.8667,-90.4833,10.0,5.563,41.0,,'11111222,11111222,99999999' 
WAVCIS,ioos:station:WAVCIS:CSI06:1,2010-02-02T16:00:00Z,28.8667,-90.4833,10.0,5.626,39.0,,'11111222,11111222,99999999' 
WAVCIS,ioos:station:WAVCIS:CSI06:1,2010-02-02T17:00:00Z,28.8667,-90.4833,10.0,3.899,41.0,,'11111222,11111222,99999999' 
WAVCIS,ioos:station:WAVCIS:CSI06:1,2010-02-02T18:00:00Z,28.8667,-90.4833,10.0,3.554,45.0,,'11111222,11111222,99999999' 
WAVCIS,ioos:station:WAVCIS:CSI06:1,2010-02-02T19:00:00Z,28.8667,-90.4833,10.0,3.287,52.0,,'11111222,11111222,99999999' 
WAVCIS,ioos:station:WAVCIS:CSI06:1,2010-02-02T20:00:00Z,28.8667,-90.4833,10.0,3.142,49.0,,'11111222,11111222,99999999' 
WAVCIS,ioos:station:WAVCIS:CSI06:1,2010-02-02T21:00:00Z,28.8667,-90.4833,10.0,1.056,46.0,,'11111222,11111222,99999999' 
WAVCIS,ioos:station:WAVCIS:CSI06:1,2010-02-02T22:00:00Z,28.8667,-90.4833,10.0,0.307,3.0,,'11111222,11111222,99999999' 
WAVCIS,ioos:station:WAVCIS:CSI06:1,2010-02-02T23:00:00Z,28.8667,-90.4833,10.0,0.828,66.0,,'11111222,11111222,99999999' 
WAVCIS,ioos:station:WAVCIS:CSI06:1,2010-02-03T00:00:00Z,28.8667,-90.4833,10.0,1.256,72.0,,'11111222,11111222,99999999' 
WAVCIS,ioos:station:WAVCIS:CSI06:1,2010-02-03T01:00:00Z,28.8667,-90.4833,10.0,0.064,333.0,,'11111222,11111222,99999999' 
WAVCIS,ioos:station:WAVCIS:CSI06:1,2010-02-03T02:00:00Z,28.8667,-90.4833,10.0,2.146,332.0,,'11111222,11111222,99999999' 
WAVCIS,ioos:station:WAVCIS:CSI06:1,2010-02-03T03:00:00Z,28.8667,-90.4833,10.0,2.242,324.0,,'11111222,11111222,99999999' 
WAVCIS,ioos:station:WAVCIS:CSI06:1,2010-02-03T04:00:00Z,28.8667,-90.4833,10.0,2.661,356.0,,'11111222,11111222,99999999' 
WAVCIS,ioos:station:WAVCIS:CSI06:1,2010-02-03T05:00:00Z,28.8667,-90.4833,10.0,6.096,10.0,,'11111222,11111222,99999999' 
WAVCIS,ioos:station:WAVCIS:CSI06:1,2010-02-03T06:00:00Z,28.8667,-90.4833,10.0,9.7,15.0,,'11111222,11111222,99999999' 
WAVCIS,ioos:station:WAVCIS:CSI06:1,2010-02-03T07:00:00Z,28.8667,-90.4833,10.0,11.96,27.0,,'11111222,11111222,99999999' 
WAVCIS,ioos:station:WAVCIS:CSI06:1,2010-02-03T08:00:00Z,28.8667,-90.4833,10.0,10.75,36.0,,'11111222,11111222,99999999' 
WAVCIS,ioos:station:WAVCIS:CSI06:1,2010-02-03T09:00:00Z,28.8667,-90.4833,10.0,12.39,40.0,,'11111222,11111222,99999999' 
WAVCIS,ioos:station:WAVCIS:CSI06:1,2010-02-03T10:00:00Z,28.8667,-90.4833,10.0,12.04,52.0,,'11111222,11111222,99999999' 
WAVCIS,ioos:station:WAVCIS:CSI06:1,2010-02-03T11:00:00Z,28.8667,-90.4833,10.0,12.77,57.0,,'11111222,11111222,99999999' 
WAVCIS,ioos:station:WAVCIS:CSI06:1,2010-02-03T12:00:00Z,28.8667,-90.4833,10.0,13.8,59.0,,'11111222,11111222,99999999' 
WAVCIS,ioos:station:WAVCIS:CSI06:1,2010-02-03T13:00:00Z,28.8667,-90.4833,10.0,11.77,63.0,,'11111222,11111222,99999999' 
WAVCIS,ioos:station:WAVCIS:CSI06:1,2010-02-03T14:00:00Z,28.8667,-90.4833,10.0,11.87,52.0,,'11111222,11111222,99999999' 
WAVCIS,ioos:station:WAVCIS:CSI06:1,2010-02-03T15:00:00Z,28.8667,-90.4833,10.0,11.68,47.0,,'11111222,11111222,99999999' 
WAVCIS,ioos:station:WAVCIS:CSI06:1,2010-02-03T16:00:00Z,28.8667,-90.4833,10.0,13.25,55.0,,'11111222,11111222,99999999' 
WAVCIS,ioos:station:WAVCIS:CSI06:1,2010-02-03T17:00:00Z,28.8667,-90.4833,10.0,12.04,59.0,,'11111222,11111222,99999999' 
WAVCIS,ioos:station:WAVCIS:CSI06:1,2010-02-03T18:00:00Z,28.8667,-90.4833,10.0,12.71,64.0,,'11111222,11111222,99999999' 
WAVCIS,ioos:station:WAVCIS:CSI06:1,2010-02-03T19:00:00Z,28.8667,-90.4833,10.0,11.5,61.0,,'11111222,11111222,99999999' 
WAVCIS,ioos:station:WAVCIS:CSI06:1,2010-02-03T20:00:00Z,28.8667,-90.4833,10.0,12.45,57.0,,'11111222,11111222,99999999' 
WAVCIS,ioos:station:WAVCIS:CSI06:1,2010-02-03T21:00:00Z,28.8667,-90.4833,10.0,14.09,66.0,,'11111222,11111222,99999999' 
WAVCIS,ioos:station:WAVCIS:CSI06:1,2010-02-03T22:00:00Z,28.8667,-90.4833,10.0,14.57,70.0,,'11111222,11111222,99999999' 
WAVCIS,ioos:station:WAVCIS:CSI06:1,2010-02-03T23:00:00Z,28.8667,-90.4833,10.0,12.43,69.0,,'11111222,11111222,99999999' 
WAVCIS,ioos:station:WAVCIS:CSI06:1,2010-02-04T00:00:00Z,28.8667,-90.4833,10.0,10.59,69.0,,'11111222,11111222,99999999' 
WAVCIS,ioos:station:WAVCIS:CSI06:1,2010-02-04T01:00:00Z,28.8667,-90.4833,10.0,12.04,68.0,,'11111222,11111222,99999999' 
WAVCIS,ioos:station:WAVCIS:CSI06:1,2010-02-04T02:00:00Z,28.8667,-90.4833,10.0,10.85,67.0,,'11111222,11111222,99999999' 
WAVCIS,ioos:station:WAVCIS:CSI06:1,2010-02-04T03:00:00Z,28.8667,-90.4833,10.0,11.67,59.0,,'11111222,11111222,99999999' 
WAVCIS,ioos:station:WAVCIS:CSI06:1,2010-02-04T04:00:00Z,28.8667,-90.4833,10.0,12.86,60.0,,'11111222,11111222,99999999' 
WAVCIS,ioos:station:WAVCIS:CSI06:1,2010-02-04T05:00:00Z,28.8667,-90.4833,10.0,14.18,67.0,,'11111222,11111222,99999999' 
WAVCIS,ioos:station:WAVCIS:CSI06:1,2010-02-04T06:00:00Z,28.8667,-90.4833,10.0,16.04,72.0,,'11111222,11111222,99999999' 
WAVCIS,ioos:station:WAVCIS:CSI06:1,2010-02-04T07:00:00Z,28.8667,-90.4833,10.0,14.2,70.0,,'11111222,11111222,99999999' 
WAVCIS,ioos:station:WAVCIS:CSI06:1,2010-02-04T08:00:00Z,28.8667,-90.4833,10.0,13.78,69.0,,'11111222,11111222,99999999' 
WAVCIS,ioos:station:WAVCIS:CSI06:1,2010-02-04T09:00:00Z,28.8667,-90.4833,10.0,15.55,73.0,,'11111222,11111222,99999999' 
WAVCIS,ioos:station:WAVCIS:CSI06:1,2010-02-04T10:00:00Z,28.8667,-90.4833,10.0,16.21,75.0,,'11111222,11111222,99999999' 
WAVCIS,ioos:station:WAVCIS:CSI06:1,2010-02-04T11:00:00Z,28.8667,-90.4833,10.0,12.97,70.0,,'11111222,11111222,99999999' 
WAVCIS,ioos:station:WAVCIS:CSI06:1,2010-02-04T12:00:00Z,28.8667,-90.4833,10.0,11.83,76.0,,'11111222,11111222,99999999' 
WAVCIS,ioos:station:WAVCIS:CSI06:1,2010-02-04T13:00:00Z,28.8667,-90.4833,10.0,14.33,96.0,,'11111222,11111222,99999999' 
WAVCIS,ioos:station:WAVCIS:CSI06:1,2010-02-04T14:00:00Z,28.8667,-90.4833,10.0,13.04,95.0,,'11111222,11111222,99999999' 
WAVCIS,ioos:station:WAVCIS:CSI06:1,2010-02-04T15:00:00Z,28.8667,-90.4833,10.0,12.57,100.0,,'11111222,11111222,99999999' 
WAVCIS,ioos:station:WAVCIS:CSI06:1,2010-02-04T16:00:00Z,28.8667,-90.4833,10.0,8.31,91.0,,'11111222,11111222,99999999' 
WAVCIS,ioos:station:WAVCIS:CSI06:1,2010-02-04T17:00:00Z,28.8667,-90.4833,10.0,9.21,32.0,,'11111222,11111222,99999999' 
WAVCIS,ioos:station:WAVCIS:CSI06:1,2010-02-04T18:00:00Z,28.8667,-90.4833,10.0,10.29,64.0,,'11111222,11111222,99999999' 
WAVCIS,ioos:station:WAVCIS:CSI06:1,2010-02-04T19:00:00Z,28.8667,-90.4833,10.0,7.83,54.0,,'11111222,11111222,99999999' 
WAVCIS,ioos:station:WAVCIS:CSI06:1,2010-02-04T20:00:00Z,28.8667,-90.4833,10.0,9.04,128.0,,'11111222,11111222,99999999' 
WAVCIS,ioos:station:WAVCIS:CSI06:1,2010-02-04T21:00:00Z,28.8667,-90.4833,10.0,8.09,202.0,,'11111222,11111222,99999999' 
WAVCIS,ioos:station:WAVCIS:CSI06:1,2010-02-04T22:00:00Z,28.8667,-90.4833,10.0,8.46,271.0,,'11111222,11111222,99999999' 
WAVCIS,ioos:station:WAVCIS:CSI06:1,2010-02-04T23:00:00Z,28.8667,-90.4833,10.0,3.433,268.0,,'11111222,11111222,99999999' 
WAVCIS,ioos:station:WAVCIS:CSI06:1,2010-02-05T00:00:00Z,28.8667,-90.4833,10.0,7.58,257.0,,'11111222,11111222,99999999' 
WAVCIS,ioos:station:WAVCIS:CSI06:1,2010-02-05T01:00:00Z,28.8667,-90.4833,10.0,7.72,253.0,,'11111222,11111222,99999999' 
WAVCIS,ioos:station:WAVCIS:CSI06:1,2010-02-05T02:00:00Z,28.8667,-90.4833,10.0,4.573,258.0,,'11111222,11111222,99999999' 
WAVCIS,ioos:station:WAVCIS:CSI06:1,2010-02-05T03:00:00Z,28.8667,-90.4833,10.0,7.12,277.0,,'11111222,11111222,99999999' 
WAVCIS,ioos:station:WAVCIS:CSI06:1,2010-02-05T04:00:00Z,28.8667,-90.4833,10.0,3.782,282.0,,'11111222,11111222,99999999' 
WAVCIS,ioos:station:WAVCIS:CSI06:1,2010-02-05T05:00:00Z,28.8667,-90.4833,10.0,7.22,268.0,,'11111222,11111222,99999999' 
WAVCIS,ioos:station:WAVCIS:CSI06:1,2010-02-05T06:00:00Z,28.8667,-90.4833,10.0,7.85,272.0,,'11111222,11111222,99999999' 
WAVCIS,ioos:station:WAVCIS:CSI06:1,2010-02-05T07:00:00Z,28.8667,-90.4833,10.0,7.98,275.0,,'11111222,11111222,99999999' 
WAVCIS,ioos:station:WAVCIS:CSI06:1,2010-02-05T08:00:00Z,28.8667,-90.4833,10.0,10.44,286.0,,'11111222,11111222,99999999' 
WAVCIS,ioos:station:WAVCIS:CSI06:1,2010-02-05T09:00:00Z,28.8667,-90.4833,10.0,10.08,295.0,,'11111222,11111222,99999999' 
WAVCIS,ioos:station:WAVCIS:CSI06:1,2010-02-05T10:00:00Z,28.8667,-90.4833,10.0,10.19,302.0,,'11111222,11111222,99999999' 
WAVCIS,ioos:station:WAVCIS:CSI06:1,2010-02-05T11:00:00Z,28.8667,-90.4833,10.0,9.4,299.0,,'11111222,11111222,99999999' 
WAVCIS,ioos:station:WAVCIS:CSI06:1,2010-02-05T12:00:00Z,28.8667,-90.4833,10.0,7.06,284.0,,'11111222,11111222,99999999' 
WAVCIS,ioos:station:WAVCIS:CSI06:1,2010-02-05T13:00:00Z,28.8667,-90.4833,10.0,7.45,277.0,,'11111222,11111222,99999999' 
WAVCIS,ioos:station:WAVCIS:CSI06:1,2010-02-05T14:00:00Z,28.8667,-90.4833,10.0,12.72,307.0,,'11111222,11111222,99999999' 
WAVCIS,ioos:station:WAVCIS:CSI06:1,2010-02-05T15:00:00Z,28.8667,-90.4833,10.0,10.28,288.0,,'11111222,11111222,99999999' 
WAVCIS,ioos:station:WAVCIS:CSI06:1,2010-02-05T16:00:00Z,28.8667,-90.4833,10.0,11.42,298.0,,'11111222,11111222,99999999' 
WAVCIS,ioos:station:WAVCIS:CSI06:1,2010-02-05T17:00:00Z,28.8667,-90.4833,10.0,9.71,284.0,,'11111222,11111222,99999999' 
WAVCIS,ioos:station:WAVCIS:CSI06:1,2010-02-05T18:00:00Z,28.8667,-90.4833,10.0,11.15,303.0,,'11111222,11111222,99999999' 
WAVCIS,ioos:station:WAVCIS:CSI06:1,2010-02-05T19:00:00Z,28.8667,-90.4833,10.0,10.91,287.0,,'11111222,11111222,99999999' 
WAVCIS,ioos:station:WAVCIS:CSI06:1,2010-02-05T20:00:00Z,28.8667,-90.4833,10.0,10.08,282.0,,'11111222,11111222,99999999' 
WAVCIS,ioos:station:WAVCIS:CSI06:1,2010-02-05T21:00:00Z,28.8667,-90.4833,10.0,10.92,278.0,,'11111222,11111222,99999999' 
WAVCIS,ioos:station:WAVCIS:CSI06:1,2010-02-05T22:00:00Z,28.8667,-90.4833,10.0,10.74,285.0,,'11111222,11111222,99999999' 
WAVCIS,ioos:station:WAVCIS:CSI06:1,2010-02-05T23:00:00Z,28.8667,-90.4833,10.0,12.48,288.0,,'11111222,11111222,99999999' 
WAVCIS,ioos:station:WAVCIS:CSI06:1,2010-02-06T00:00:00Z,28.8667,-90.4833,10.0,13.11,285.0,,'11111222,11111222,99999999' 
WAVCIS,ioos:station:WAVCIS:CSI06:1,2010-02-06T01:00:00Z,28.8667,-90.4833,10.0,11.83,288.0,,'11111222,11111222,99999999' 
WAVCIS,ioos:station:WAVCIS:CSI06:1,2010-02-06T02:00:00Z,28.8667,-90.4833,10.0,12.22,296.0,,'11111222,11111222,99999999' 
WAVCIS,ioos:station:WAVCIS:CSI06:1,2010-02-06T03:00:00Z,28.8667,-90.4833,10.0,12.5,308.0,,'11111222,11111222,99999999' 
WAVCIS,ioos:station:WAVCIS:CSI06:1,2010-02-06T04:00:00Z,28.8667,-90.4833,10.0,11.75,311.0,,'11111222,11111222,99999999' 
WAVCIS,ioos:station:WAVCIS:CSI06:1,2010-02-06T05:00:00Z,28.8667,-90.4833,10.0,13.24,311.0,,'11111222,11111222,99999999' 
WAVCIS,ioos:station:WAVCIS:CSI06:1,2010-02-06T06:00:00Z,28.8667,-90.4833,10.0,13.01,327.0,,'11111222,11111222,99999999' 
WAVCIS,ioos:station:WAVCIS:CSI06:1,2010-02-06T07:00:00Z,28.8667,-90.4833,10.0,11.89,324.0,,'11111222,11111222,99999999' 
WAVCIS,ioos:station:WAVCIS:CSI06:1,2010-02-06T08:00:00Z,28.8667,-90.4833,10.0,10.87,331.0,,'11111222,11111222,99999999' 
WAVCIS,ioos:station:WAVCIS:CSI06:1,2010-02-06T09:00:00Z,28.8667,-90.4833,10.0,7.86,321.0,,'11111222,11111222,99999999' 
WAVCIS,ioos:station:WAVCIS:CSI06:1,2010-02-06T10:00:00Z,28.8667,-90.4833,10.0,7.92,299.0,,'11111222,11111222,99999999' 
WAVCIS,ioos:station:WAVCIS:CSI06:1,2010-02-06T11:00:00Z,28.8667,-90.4833,10.0,10.01,289.0,,'11111222,11111222,99999999' 
WAVCIS,ioos:station:WAVCIS:CSI06:1,2010-02-06T12:00:00Z,28.8667,-90.4833,10.0,9.62,291.0,,'11111222,11111222,99999999' 
WAVCIS,ioos:station:WAVCIS:CSI06:1,2010-02-06T13:00:00Z,28.8667,-90.4833,10.0,11.98,293.0,,'11111222,11111222,99999999' 
WAVCIS,ioos:station:WAVCIS:CSI06:1,2010-02-06T14:00:00Z,28.8667,-90.4833,10.0,13.69,308.0,,'11111222,11111222,99999999' 
WAVCIS,ioos:station:WAVCIS:CSI06:1,2010-02-06T15:00:00Z,28.8667,-90.4833,10.0,11.72,318.0,,'11111222,11111222,99999999' 
WAVCIS,ioos:station:WAVCIS:CSI06:1,2010-02-06T16:00:00Z,28.8667,-90.4833,10.0,10.32,326.0,,'11111222,11111222,99999999' 
WAVCIS,ioos:station:WAVCIS:CSI06:1,2010-02-06T17:00:00Z,28.8667,-90.4833,10.0,9.53,329.0,,'11111222,11111222,99999999' 
WAVCIS,ioos:station:WAVCIS:CSI06:1,2010-02-06T18:00:00Z,28.8667,-90.4833,10.0,8.74,325.0,,'11111222,11111222,99999999' 
WAVCIS,ioos:station:WAVCIS:CSI06:1,2010-02-06T19:00:00Z,28.8667,-90.4833,10.0,10.54,316.0,,'11111222,11111222,99999999' 
WAVCIS,ioos:station:WAVCIS:CSI06:1,2010-02-06T20:00:00Z,28.8667,-90.4833,10.0,9.1,309.0,,'11111222,11111222,99999999' 
WAVCIS,ioos:station:WAVCIS:CSI06:1,2010-02-06T21:00:00Z,28.8667,-90.4833,10.0,9.72,310.0,,'11111222,11111222,99999999' 
WAVCIS,ioos:station:WAVCIS:CSI06:1,2010-02-06T22:00:00Z,28.8667,-90.4833,10.0,9.01,321.0,,'11111222,11111222,99999999' 
WAVCIS,ioos:station:WAVCIS:CSI06:1,2010-02-06T23:00:00Z,28.8667,-90.4833,10.0,9.24,322.0,,'11111222,11111222,99999999' 
WAVCIS,ioos:station:WAVCIS:CSI06:1,2010-02-07T00:00:00Z,28.8667,-90.4833,10.0,6.136,347.0,,'11111222,11111222,99999999' 
WAVCIS,ioos:station:WAVCIS:CSI06:1,2010-02-07T01:00:00Z,28.8667,-90.4833,10.0,5.735,352.0,,'11111222,11111222,99999999' 
WAVCIS,ioos:station:WAVCIS:CSI06:1,2010-02-07T02:00:00Z,28.8667,-90.4833,10.0,7.67,340.0,,'11111222,11111222,99999999' 
WAVCIS,ioos:station:WAVCIS:CSI06:1,2010-02-07T03:00:00Z,28.8667,-90.4833,10.0,6.416,2.0,,'11111222,11111222,99999999' 
WAVCIS,ioos:station:WAVCIS:CSI06:1,2010-02-07T04:00:00Z,28.8667,-90.4833,10.0,7.51,9.0,,'11111222,11111222,99999999' 
WAVCIS,ioos:station:WAVCIS:CSI06:1,2010-02-07T05:00:00Z,28.8667,-90.4833,10.0,7.47,12.0,,'11111222,11111222,99999999' 
WAVCIS,ioos:station:WAVCIS:CSI06:1,2010-02-07T06:00:00Z,28.8667,-90.4833,10.0,6.766,10.0,,'11111222,11111222,99999999' 
WAVCIS,ioos:station:WAVCIS:CSI06:1,2010-02-07T07:00:00Z,28.8667,-90.4833,10.0,6.975,18.0,,'11111222,11111222,99999999' 
WAVCIS,ioos:station:WAVCIS:CSI06:1,2010-02-07T08:00:00Z,28.8667,-90.4833,10.0,7.59,16.0,,'11111222,11111222,99999999' 
WAVCIS,ioos:station:WAVCIS:CSI06:1,2010-02-07T09:00:00Z,28.8667,-90.4833,10.0,6.649,23.0,,'11111222,11111222,99999999' 
WAVCIS,ioos:station:WAVCIS:CSI06:1,2010-02-07T10:00:00Z,28.8667,-90.4833,10.0,6.368,25.0,,'11111222,11111222,99999999' 
WAVCIS,ioos:station:WAVCIS:CSI06:1,2010-02-07T11:00:00Z,28.8667,-90.4833,10.0,5.436,23.0,,'11111222,11111222,99999999' 
WAVCIS,ioos:station:WAVCIS:CSI06:1,2010-02-07T12:00:00Z,28.8667,-90.4833,10.0,5.754,47.0,,'11111222,11111222,99999999' 
WAVCIS,ioos:station:WAVCIS:CSI06:1,2010-02-07T13:00:00Z,28.8667,-90.4833,10.0,5.348,26.0,,'11111222,11111222,99999999' 
WAVCIS,ioos:station:WAVCIS:CSI06:1,2010-02-07T14:00:00Z,28.8667,-90.4833,10.0,4.704,40.0,,'11111222,11111222,99999999' 
WAVCIS,ioos:station:WAVCIS:CSI06:1,2010-02-07T15:00:00Z,28.8667,-90.4833,10.0,3.995,41.0,,'11111222,11111222,99999999' 
WAVCIS,ioos:station:WAVCIS:CSI06:1,2010-02-07T16:00:00Z,28.8667,-90.4833,10.0,3.351,38.0,,'11111222,11111222,99999999' 
WAVCIS,ioos:station:WAVCIS:CSI06:1,2010-02-07T17:00:00Z,28.8667,-90.4833,10.0,4.814,38.0,,'11111222,11111222,99999999' 
WAVCIS,ioos:station:WAVCIS:CSI06:1,2010-02-07T18:00:00Z,28.8667,-90.4833,10.0,4.19,37.0,,'11111222,11111222,99999999' 
WAVCIS,ioos:station:WAVCIS:CSI06:1,2010-02-07T19:00:00Z,28.8667,-90.4833,10.0,3.298,33.0,,'11111222,11111222,99999999' 
WAVCIS,ioos:station:WAVCIS:CSI06:1,2010-02-07T20:00:00Z,28.8667,-90.4833,10.0,2.526,36.0,,'11111222,11111222,99999999' 
WAVCIS,ioos:station:WAVCIS:CSI06:1,2010-02-07T21:00:00Z,28.8667,-90.4833,10.0,2.166,74.0,,'11111222,11111222,99999999' 
WAVCIS,ioos:station:WAVCIS:CSI06:1,2010-02-07T22:00:00Z,28.8667,-90.4833,10.0,1.821,59.0,,'11111222,11111222,99999999' 
WAVCIS,ioos:station:WAVCIS:CSI06:1,2010-02-07T23:00:00Z,28.8667,-90.4833,10.0,2.537,93.0,,'11111222,11111222,99999999' 
WAVCIS,ioos:station:WAVCIS:CSI06:1,2010-02-08T00:00:00Z,28.8667,-90.4833,10.0,3.946,73.0,,'11111222,11111222,99999999' 
WAVCIS,ioos:station:WAVCIS:CSI06:1,2010-02-08T01:00:00Z,28.8667,-90.4833,10.0,4.66,72.0,,'11111222,11111222,99999999' 
WAVCIS,ioos:station:WAVCIS:CSI06:1,2010-02-08T02:00:00Z,28.8667,-90.4833,10.0,5.456,70.0,,'11111222,11111222,99999999' 
WAVCIS,ioos:station:WAVCIS:CSI06:1,2010-02-08T03:00:00Z,28.8667,-90.4833,10.0,6.661,77.0,,'11111222,11111222,99999999' 
WAVCIS,ioos:station:WAVCIS:CSI06:1,2010-02-08T04:00:00Z,28.8667,-90.4833,10.0,6.112,99.0,,'11111222,11111222,99999999' 
WAVCIS,ioos:station:WAVCIS:CSI06:1,2010-02-08T05:00:00Z,28.8667,-90.4833,10.0,6.055,100.0,,'11111222,11111222,99999999' 
WAVCIS,ioos:station:WAVCIS:CSI06:1,2010-02-08T06:00:00Z,28.8667,-90.4833,10.0,6.74,101.0,,'11111222,11111222,99999999' 
WAVCIS,ioos:station:WAVCIS:CSI06:1,2010-02-08T07:00:00Z,28.8667,-90.4833,10.0,8.0,99.0,,'11111222,11111222,99999999' 
WAVCIS,ioos:station:WAVCIS:CSI06:1,2010-02-08T08:00:00Z,28.8667,-90.4833,10.0,7.94,94.0,,'11111222,11111222,99999999' 
WAVCIS,ioos:station:WAVCIS:CSI06:1,2010-02-08T09:00:00Z,28.8667,-90.4833,10.0,8.43,80.0,,'11111222,11111222,99999999' 
WAVCIS,ioos:station:WAVCIS:CSI06:1,2010-02-08T10:00:00Z,28.8667,-90.4833,10.0,7.98,88.0,,'11111222,11111222,99999999' 
WAVCIS,ioos:station:WAVCIS:CSI06:1,2010-02-08T11:00:00Z,28.8667,-90.4833,10.0,8.33,88.0,,'11111222,11111222,99999999' 
WAVCIS,ioos:station:WAVCIS:CSI06:1,2010-02-08T12:00:00Z,28.8667,-90.4833,10.0,7.56,96.0,,'11111222,11111222,99999999' 
WAVCIS,ioos:station:WAVCIS:CSI06:1,2010-02-08T13:00:00Z,28.8667,-90.4833,10.0,7.16,94.0,,'11111222,11111222,99999999' 
WAVCIS,ioos:station:WAVCIS:CSI06:1,2010-02-08T14:00:00Z,28.8667,-90.4833,10.0,6.984,88.0,,'11111222,11111222,99999999' 
WAVCIS,ioos:station:WAVCIS:CSI06:1,2010-02-08T15:00:00Z,28.8667,-90.4833,10.0,6.869,87.0,,'11111222,11111222,99999999' 
WAVCIS,ioos:station:WAVCIS:CSI06:1,2010-02-08T16:00:00Z,28.8667,-90.4833,10.0,6.398,102.0,,'11111222,11111222,99999999' 
WAVCIS,ioos:station:WAVCIS:CSI06:1,2010-02-08T17:00:00Z,28.8667,-90.4833,10.0,7.93,114.0,,'11111222,11111222,99999999' 
WAVCIS,ioos:station:WAVCIS:CSI06:1,2010-02-08T18:00:00Z,28.8667,-90.4833,10.0,8.91,113.0,,'11111222,11111222,99999999' 
WAVCIS,ioos:station:WAVCIS:CSI06:1,2010-02-08T19:00:00Z,28.8667,-90.4833,10.0,10.31,112.0,,'11111222,11111222,99999999' 
WAVCIS,ioos:station:WAVCIS:CSI06:1,2010-02-08T20:00:00Z,28.8667,-90.4833,10.0,9.38,120.0,,'11111222,11111222,99999999' 
WAVCIS,ioos:station:WAVCIS:CSI06:1,2010-02-08T21:00:00Z,28.8667,-90.4833,10.0,6.708,114.0,,'11111222,11111222,99999999' 
WAVCIS,ioos:station:WAVCIS:CSI06:1,2010-02-08T22:00:00Z,28.8667,-90.4833,10.0,8.25,111.0,,'11111222,11111222,99999999' 
WAVCIS,ioos:station:WAVCIS:CSI06:1,2010-02-08T23:00:00Z,28.8667,-90.4833,10.0,8.63,117.0,,'11111222,11111222,99999999' 
WAVCIS,ioos:station:WAVCIS:CSI06:1,2010-02-09T00:00:00Z,28.8667,-90.4833,10.0,8.66,116.0,,'11111222,11111222,99999999' 
WAVCIS,ioos:station:WAVCIS:CSI06:1,2010-02-09T01:00:00Z,28.8667,-90.4833,10.0,8.86,116.0,,'11111222,11111222,99999999' 
WAVCIS,ioos:station:WAVCIS:CSI06:1,2010-02-09T02:00:00Z,28.8667,-90.4833,10.0,9.67,131.0,,'11111222,11111222,99999999' 
WAVCIS,ioos:station:WAVCIS:CSI06:1,2010-02-09T03:00:00Z,28.8667,-90.4833,10.0,10.61,140.0,,'11111222,11111222,99999999' 
WAVCIS,ioos:station:WAVCIS:CSI06:1,2010-02-09T04:00:00Z,28.8667,-90.4833,10.0,12.95,153.0,,'11111222,11111222,99999999' 
WAVCIS,ioos:station:WAVCIS:CSI06:1,2010-02-09T05:00:00Z,28.8667,-90.4833,10.0,10.35,155.0,,'11111222,11111222,99999999' 
WAVCIS,ioos:station:WAVCIS:CSI06:1,2010-02-09T06:00:00Z,28.8667,-90.4833,10.0,11.07,156.0,,'11111222,11111222,99999999' 